Home   Weather   Bantam   Past weeks

Flag for Cocos Islands Past Weather in Bantam, Cocos Islands — Yesterday and Last 2 Weeks

Now
77 °F

Mostly cloudy.


Feels Like: 79 °F
Forecast: 76 / 82 °F
Wind: 23 mph from Southeast

Location: Cocos Island Airport

Current Time: Sep 26, 2016 at 5:15:49 AM

Latest Report: Sep 26, 2016 at 4:30 AM


Visibility: N/A

Pressure: 29.83 "Hg

Humidity: 74%

Dew Point: 68 °F

Location of BantamLocation

Past Weather in Bantam — Graph

°F

Bantam Temperature Yesterday

Maximum temperature yesterday: 81 °F (at 10:30 AM)
Minimum temperature yesterday: 75 °F (at 8:30 AM)
Average temperature yesterday: 77 °F

High & Low Weather Summary for the Past Weeks

 TemperatureHumidityPressure
High84 °F (Sep 19, 1:00 PM)100% (Sep 12, 12:00 PM)29.98 "Hg (Sep 12, 12:00 PM)
Low75 °F (Sep 11, 3:30 AM)54% (Sep 16, 10:30 AM)29.80 "Hg (Sep 24, 3:00 AM)
Average79 °F74%29.89 "Hg
* Reported Sep 11 3:30 AM — Sep 26 3:30 AM, Bantam, Weather by CustomWeather, © 2016

Note: Actual official high and low records may vary slightly from our data, if they occured in-between our weather recording intervals... More about our weather records

Advertising

Bantam Weather History for the Previous 24 Hours

Scroll right to see more
 ConditionsComfort  
Time TempWeatherWind HumidityBarometerVisibility
3:30 AM
Mon, Sep 26
77 °FOvercast.25 mph74%29.83 "HgN/A
3:00 AM75 °FOvercast.26 mph78%29.86 "HgN/A
2:30 AM77 °FOvercast.21 mph74%29.86 "HgN/A
2:28 AM77 °FOvercast.22 mph79%29.86 "HgN/A
2:00 AM77 °FOvercast.23 mph74%29.86 "HgN/A
1:30 AM77 °FMostly cloudy.25 mph69%29.86 "HgN/A
12:30 AM77 °FOvercast.25 mph79%29.89 "HgN/A
12:00 AM77 °FMostly cloudy.24 mph74%29.89 "HgN/A
11:30 PM
Sun, Sep 25
79 °FOvercast.25 mph65%29.92 "HgN/A
11:00 PM79 °FMostly cloudy.26 mph65%29.92 "HgN/A
10:30 PM77 °FPartly cloudy.25 mph69%29.92 "HgN/A
9:30 PM77 °FMostly cloudy.28 mph74%29.92 "HgN/A
9:00 PM77 °FOvercast.25 mph79%29.92 "HgN/A
8:30 PM75 °FOvercast.29 mph83%29.92 "HgN/A
8:00 PM75 °FMostly cloudy.24 mph83%29.92 "HgN/A
7:30 PM75 °FOvercast.28 mph78%29.92 "HgN/A
6:30 PM77 °FSprinkles. Cloudy.28 mph74%29.89 "Hg5 mi
6:00 PM77 °FCloudy.24 mph74%29.89 "HgN/A
5:30 PM75 °FCloudy.29 mph83%29.86 "HgN/A
4:30 PM77 °FCloudy.26 mph69%29.86 "HgN/A
4:00 PM77 °FCloudy.26 mph69%29.86 "HgN/A
3:35 PM77 °FCloudy.24 mph74%29.83 "HgN/A
3:19 PM77 °FMore clouds than sun.28 mph74%29.83 "HgN/A
2:30 PM79 °FCloudy.26 mph61%29.83 "HgN/A
1:30 PM79 °FMore clouds than sun.25 mph65%29.83 "Hg5 mi
1:00 PM79 °FCloudy.28 mph70%29.83 "HgN/A
12:30 PM79 °FMostly cloudy.25 mph70%29.86 "HgN/A
12:00 PM79 °FBroken clouds.29 mph70%29.86 "HgN/A
11:30 AM81 °FCloudy.26 mph66%29.86 "HgN/A
10:30 AM81 °FBroken clouds.29 mph62%29.89 "HgN/A
10:00 AM79 °FCloudy.29 mph65%29.89 "HgN/A
9:30 AM79 °FBroken clouds.30 mph65%29.89 "HgN/A
8:30 AM75 °FCloudy.25 mph78%29.89 "Hg6 mi
8:00 AM77 °FCloudy.24 mph74%29.89 "HgN/A
7:31 AM77 °FSprinkles. Cloudy.25 mph79%29.89 "HgN/A
6:31 AM77 °FOvercast.23 mph69%29.86 "HgN/A
6:00 AM77 °FPartly cloudy.26 mph74%29.86 "HgN/A
5:30 AM77 °FPassing clouds.25 mph69%29.83 "HgN/A
Weather by CustomWeather, © 2016

See weather overviewHow to use our weather pages